Weather History for Buckland, AK

Change the Weather History Date:

Tuesday, February 7, 2012

  Actual Average (PASK) Record (PASK)
Temperature  
Mean Temperature 24 °F -  
Max Temperature 30 °F 4 °F 26 °F (2012)
Min Temperature 17 °F -5 °F -50 °F (1999)
Degree Days  
Heating Degree Days 42    
Moisture  
Dew Point 15 °F    
Average Humidity 70    
Maximum Humidity 86    
Minimum Humidity 63    
Precipitation  
Precipitation 0.00 in - - ()
Sea Level Pressure  
Sea Level Pressure 29.86 in    
Wind  
Wind Speed 13 mph (SE)    
Max Wind Speed 25 mph    
Max Gust Speed 33 mph    
Visibility 10 miles    
Events      
Averages and records for this station are not official NWS values.
T = Trace of Precipitation, MM = Missing Value Source: NWS Daily Summary

Daily Weather History Graph

Daily Weather History Graph

Search for Another Location

Airport:

Trip Planner

Search our weather history database for the weather conditions in past years. The results will help you decide how hot, cold, wet, or windy it might be!

Date:

Astronomy

Feb. 07, 2012 Rise Set
Actual Time 10:19 AM AKST 5:38 PM AKST
Civil Twilight 9:20 AM AKST 6:38 PM AKST
Nautical Twilight 8:18 AM AKST 7:40 PM AKST
Astronomical Twilight 7:19 AM AKST 8:39 PM AKST
Moon 6:35 PM AKST (2/7) 9:33 AM AKST (2/7)
Length of Visible Light 9h 18m
Length of Day
7h 19m
Full, 100% of the Moon is Illuminated
Feb 7
Full
Feb 7
Full
Feb 14
Last Quarter
Feb 21
New
Feb 29
First Quarter

Hourly Weather History & Observations

Time (AKST) Temp. Windchill Dew Point Humidity Pressure Visibility Wind Dir Wind Speed Gust Speed Precip Events Conditions
12:16 AM 30.2 °F 18.5 °F 21.2 °F 69% 29.92 in 10.0 mi ESE 17.3 mph 21.9 mph N/A   Clear
12:36 AM 30.2 °F 18.9 °F 21.2 °F 69% 29.93 in 10.0 mi ESE 16.1 mph 21.9 mph N/A   Clear
12:56 AM 28.4 °F 19.1 °F 21.2 °F 74% 29.93 in 10.0 mi East 10.4 mph - N/A   Clear
1:16 AM 28.4 °F 18.0 °F 21.2 °F 74% 29.92 in 10.0 mi East 12.7 mph - N/A   Clear
1:36 AM 28.4 °F 18.5 °F 21.2 °F 74% 29.92 in 10.0 mi East 11.5 mph - N/A   Clear
1:56 AM 28.4 °F 15.8 °F 21.2 °F 74% 29.92 in 10.0 mi ESE 18.4 mph - N/A   Clear
2:16 AM 30.2 °F 18.5 °F 21.2 °F 69% 29.92 in 10.0 mi East 17.3 mph - N/A   Clear
2:36 AM 30.2 °F 18.9 °F 19.4 °F 64% 29.92 in 10.0 mi ESE 16.1 mph 21.9 mph N/A   Clear
2:56 AM 28.4 °F 17.5 °F 19.4 °F 69% 29.92 in 10.0 mi East 13.8 mph 21.9 mph N/A   Clear
3:16 AM 26.6 °F 15.7 °F 17.6 °F 69% 29.93 in 10.0 mi SSE 12.7 mph - N/A   Clear
3:36 AM 26.6 °F 22.6 °F 17.6 °F 69% 29.93 in 10.0 mi SSW 3.5 mph - N/A   Clear
3:56 AM 26.6 °F 19.1 °F 17.6 °F 69% 29.93 in 10.0 mi SW 6.9 mph - N/A   Clear
4:16 AM 24.8 °F 13.4 °F 17.6 °F 74% 29.92 in 10.0 mi South 12.7 mph - N/A   Clear
4:36 AM 24.8 °F 17.9 °F 17.6 °F 74% 29.92 in 10.0 mi SSW 5.8 mph - N/A   Clear
4:56 AM 24.8 °F 16.1 °F 17.6 °F 74% 29.91 in 10.0 mi South 8.1 mph - N/A   Clear
5:16 AM 23.0 °F 13.9 °F 15.8 °F 74% 29.90 in 10.0 mi South 8.1 mph - N/A   Clear
5:36 AM 21.2 °F 14.9 °F 15.8 °F 80% 29.90 in 10.0 mi South 4.6 mph - N/A   Clear
5:56 AM 19.4 °F 7.2 °F 15.8 °F 86% 29.89 in 10.0 mi South 11.5 mph - N/A   Clear
6:16 AM 17.6 °F 5.7 °F 12.2 °F 79% 29.88 in 10.0 mi SSE 10.4 mph - N/A   Clear
6:36 AM 21.2 °F 10.1 °F 14.0 °F 74% 29.88 in 10.0 mi SSE 10.4 mph - N/A   Clear
6:56 AM 24.8 °F 14.6 °F 17.6 °F 74% 29.89 in 10.0 mi SSE 10.4 mph 20.7 mph N/A   Clear
7:16 AM 23.0 °F 14.7 °F 14.0 °F 68% 29.88 in 10.0 mi SSE 6.9 mph - N/A   Clear
7:36 AM 24.8 °F 16.9 °F 15.8 °F 69% 29.88 in 10.0 mi South 6.9 mph - N/A   Clear
7:56 AM 17.6 °F 5.0 °F 12.2 °F 79% 29.87 in 10.0 mi SSE 11.5 mph - N/A   Clear
8:16 AM 26.6 °F 14.3 °F 17.6 °F 69% 29.86 in 10.0 mi SSE 16.1 mph - N/A   Clear
8:36 AM 28.4 °F 17.5 °F 17.6 °F 64% 29.86 in 10.0 mi East 13.8 mph 21.9 mph N/A   Clear
8:56 AM 24.8 °F 17.9 °F 14.0 °F 64% 29.86 in 10.0 mi SE 5.8 mph - N/A   Clear
9:16 AM 21.2 °F 10.9 °F 12.2 °F 68% 29.86 in 10.0 mi South 9.2 mph - N/A   Clear
9:36 AM 19.4 °F 11.5 °F 10.4 °F 68% 29.86 in 10.0 mi South 5.8 mph - N/A   Clear
9:56 AM 17.6 °F 7.3 °F 10.4 °F 73% 29.86 in 10.0 mi SSW 8.1 mph - N/A   Clear
10:16 AM 17.6 °F 8.2 °F 10.4 °F 73% 29.86 in 10.0 mi SSW 6.9 mph - N/A   Clear
10:36 AM 21.2 °F 10.1 °F 12.2 °F 68% 29.85 in 10.0 mi ESE 10.4 mph - N/A   Clear
10:56 AM 21.2 °F 7.8 °F 12.2 °F 68% 29.82 in 10.0 mi ESE 15.0 mph 18.4 mph N/A   Clear
11:16 AM 24.8 °F 12.9 °F 14.0 °F 64% 29.83 in 10.0 mi ESE 13.8 mph 18.4 mph N/A   Clear
11:36 AM 21.2 °F 9.5 °F 14.0 °F 74% 29.83 in 10.0 mi SSE 11.5 mph - N/A   Clear
11:56 AM 24.8 °F 13.4 °F 14.0 °F 64% 29.83 in 10.0 mi SSE 12.7 mph 20.7 mph N/A   Clear
12:16 PM 24.8 °F 12.9 °F 14.0 °F 64% 29.82 in 10.0 mi SE 13.8 mph 27.6 mph N/A   Clear
12:36 PM 21.2 °F 8.3 °F 12.2 °F 68% 29.81 in 10.0 mi SE 13.8 mph 19.6 mph N/A   Clear
12:56 PM 24.8 °F 9.0 °F 14.0 °F 64% 29.79 in 10.0 mi East 25.3 mph 33.4 mph N/A   Clear
1:16 PM 24.8 °F 9.0 °F 15.8 °F 69% 29.79 in 10.0 mi East 25.3 mph 33.4 mph N/A   Clear
1:36 PM 24.8 °F 10.0 °F 14.0 °F 64% 29.79 in 10.0 mi East 21.9 mph 29.9 mph N/A   Clear
1:56 PM 24.8 °F 11.5 °F 15.8 °F 69% 29.80 in 10.0 mi East 17.3 mph 25.3 mph N/A   Clear
2:16 PM 24.8 °F 10.7 °F 15.8 °F 69% 29.80 in 10.0 mi East 19.6 mph 24.2 mph N/A   Clear
2:36 PM 23.0 °F 14.7 °F 14.0 °F 68% 29.82 in 10.0 mi SSE 6.9 mph - N/A   Clear
2:56 PM 23.0 °F 8.7 °F 17.6 °F 80% 29.80 in 10.0 mi East 18.4 mph 21.9 mph N/A   Clear
3:16 PM 23.0 °F 8.7 °F 15.8 °F 74% 29.80 in 10.0 mi East 18.4 mph 25.3 mph N/A   Clear
3:36 PM 21.2 °F 9.5 °F 12.2 °F 68% 29.80 in 10.0 mi SSE 11.5 mph - N/A   Clear
3:56 PM 21.2 °F 9.5 °F 12.2 °F 68% 29.81 in 10.0 mi South 11.5 mph - N/A   Clear
4:16 PM 21.2 °F 8.9 °F 14.0 °F 74% 29.81 in 10.0 mi SSE 12.7 mph - N/A   Clear
4:36 PM 21.2 °F 7.8 °F 12.2 °F 68% 29.81 in 10.0 mi SSE 15.0 mph 19.6 mph N/A   Clear
4:56 PM 23.0 °F 8.7 °F 12.2 °F 63% 29.81 in 10.0 mi SSE 18.4 mph 25.3 mph N/A   Clear
5:16 PM 23.0 °F 8.7 °F 14.0 °F 68% 29.81 in 10.0 mi SE 18.4 mph 26.5 mph N/A   Clear
5:36 PM 19.4 °F 5.5 °F 10.4 °F 68% 29.81 in 10.0 mi SE 15.0 mph 19.6 mph N/A   Clear
5:56 PM 17.6 °F 5.0 °F 8.6 °F 68% 29.81 in 10.0 mi South 11.5 mph - N/A   Clear
6:16 PM 17.6 °F 5.7 °F 10.4 °F 73% 29.81 in 10.0 mi SSE 10.4 mph - N/A   Clear
6:36 PM 17.6 °F 5.7 °F 10.4 °F 73% 29.82 in 10.0 mi South 10.4 mph - N/A   Clear
6:56 PM 17.6 °F 7.3 °F 8.6 °F 68% 29.82 in 10.0 mi SSE 8.1 mph - N/A   Clear
7:16 PM 17.6 °F 6.4 °F 8.6 °F 68% 29.82 in 10.0 mi SSE 9.2 mph - N/A   Clear
7:36 PM 17.6 °F 7.3 °F 10.4 °F 73% 29.81 in 10.0 mi SSE 8.1 mph - N/A   Clear
7:56 PM 17.6 °F 6.4 °F 10.4 °F 73% 29.82 in 10.0 mi SSE 9.2 mph - N/A   Clear
8:16 PM 17.6 °F 3.7 °F 10.4 °F 73% 29.82 in 10.0 mi South 13.8 mph - N/A   Clear
8:36 PM 14.0 °F 2.0 °F 5.0 °F 67% 29.82 in 10.0 mi South 9.2 mph - N/A   Clear
8:56 PM 12.2 °F -1.0 °F 6.8 °F 79% 29.82 in 10.0 mi South 10.4 mph - N/A   Clear
9:16 PM 10.4 °F -2.4 °F 5.0 °F 79% 29.82 in 10.0 mi South 9.2 mph - N/A   Clear
9:36 PM 10.4 °F -0.4 °F 6.8 °F 85% 29.82 in 10.0 mi South 6.9 mph - N/A   Clear
9:56 PM 10.4 °F -1.5 °F 5.0 °F 79% 29.81 in 10.0 mi South 8.1 mph - N/A   Clear
10:16 PM 10.4 °F -0.4 °F 5.0 °F 79% 29.82 in 10.0 mi South 6.9 mph - N/A   Clear
10:36 PM 10.4 °F -1.5 °F 6.8 °F 85% 29.82 in 10.0 mi SSE 8.1 mph - N/A   Clear
10:56 PM 10.4 °F -2.4 °F 5.0 °F 79% 29.82 in 10.0 mi South 9.2 mph - N/A   Clear
11:16 PM 10.4 °F -3.3 °F 6.8 °F 85% 29.82 in 10.0 mi South 10.4 mph - N/A   Clear
11:36 PM 12.2 °F -3.1 °F 6.8 °F 79% 29.82 in 10.0 mi South 13.8 mph - N/A   Clear
11:56 PM 12.2 °F -1.8 °F 5.0 °F 73% 29.82 in 10.0 mi South 11.5 mph - N/A   Clear